Preview of NWS' New Version of Forecast
This preview is not operational and should not be used for support decisions.

Regional Weather Roundup (RWR)

Issued by National Weather Service (NWS)

                            
000
ASUS44 KMEG 210210
RWRTN 
TENNESSEE HOURLY STATE WEATHER ROUNDUP
NATIONAL WEATHER SERVICE MEMPHIS TN
900 PM CDT WED MAR 20 2019

TNZ002-004-019-021-049-052-054-088>092-210300-
WEST TENNESSEE
  
CITY           SKY/WX    TMP DP  RH WIND       PRES   REMARKS
MEMPHIS INTL   RAIN      45  44  97 SW3       30.15S                  
NWS MEMPHIS      N/A     45 N/A N/A MISG        N/A                   
JACKSON        LGT RAIN  48  45  89 NW10      30.12S                  
DYERSBURG      MOCLDY    47  45  93 W8        30.12S                  
SOMERVILLE     CLOUDY    48  46  93 NW6G12    30.11S                  
COVINGTON      CLOUDY    46  45  93 W6        30.12S                  
UNION CITY     MOCLDY    46  45  93 SW3       30.08F                  
BOLIVAR        CLOUDY    48  46  93 W6G12     30.11R                  
PARIS          CLOUDY    46  45  93 W5        30.10S                  
HUNTINGDON     MOCLDY    46  46 100 W3        30.10S                  
LEXINGTON      CLOUDY    50  43  76 NW6G14    30.08S                  
SAVANNAH       CLOUDY    54  39  58 N8        30.07S                  
$$

TNZ008-025-027-028-033-062-065-066-210300-
NORTH MIDDLE TENNESSEE
  
CITY           SKY/WX    TMP DP  RH WIND       PRES   REMARKS
NASHVILLE      CLOUDY    58  28  32 NW9       30.05R                  
DICKSON        CLOUDY    52  36  54 W10G16    30.05R                  
CLARKSVILLE    FAIR      50  39  66 W13       30.07R                  
SMYRNA         CLOUDY    57  31  37 CALM      30.04R                  
MURFREESBORO   CLOUDY    57  28  33 S7        30.01S                  
COOKEVILLE     PTCLDY    46  34  61 CALM      30.03S                  
LIVINGSTON     PTCLDY    54  25  32 S3        30.02F                  
GALLATIN       CLOUDY    57  30  35 NW9       30.07R                  
CROSSVILLE     FAIR      49  24  37 CALM      30.06R                  
ROCKWOOD       CLEAR     48  21  34 W5        30.05S                  
$$

TNZ061-075-076-078-094-096-097-210300-
SOUTH MIDDLE TENNESSEE
  
CITY           SKY/WX    TMP DP  RH WIND       PRES   REMARKS
LAWRENCEBURG   CLOUDY    55  36  47 CALM      30.04R                  
LEWISBURG      CLOUDY    54  34  47 S5        30.03S                  
FAYETTEVILLE   CLOUDY    54  32  43 S3        30.04S                  
TULLAHOMA      PTCLDY    52  32  46 S5        30.04S                  
WINCHESTER     PTCLDY    50  32  50 SE3       30.05S                  
MCMINNVILLE    CLEAR     48  34  57 S5        30.04S                  
COLUMBIA       CLOUDY    57  30  35 NW6G15    30.04R                  
SHELBYVILLE    MOCLDY    54  32  43 S3        30.03S                  
$$

TNZ017-018-042-046-047-210300-
NORTHEAST TENNESSEE
  
CITY           SKY/WX    TMP DP  RH WIND       PRES   REMARKS
TRI CITIES     MOCLDY    46  26  45 CALM      30.06R                  
ELIZABETHTON     N/A     41  32  70 CALM      30.06S                  
GREENEVILLE    CLEAR     46  27  46 CALM      30.05S                  
$$

TNZ012-013-036-069-073-074-210300-
CENTRAL EAST TENNESSEE
  
CITY           SKY/WX    TMP DP  RH WIND       PRES   REMARKS
KNOXVILLE      CLOUDY    51  26  37 S5        30.05S                  
OAK RIDGE      FAIR      49  28  44 CALM      30.06S                  
DOWNTOWN KNOXV CLOUDY    46  34  61 CALM      30.06S                  
GATLINBURG     PTCLDY    46  30  53 CALM      30.06R                  
MORRISTOWN     PTCLDY    48  28  46 CALM      30.05R                  
JACKSBORO      MOCLDY    43  28  56 CALM      30.07S                  
$$

TNZ083-085-099-210300-
SOUTHEAST TENNESSEE
  
CITY           SKY/WX    TMP DP  RH WIND       PRES   REMARKS
CHATTANOOGA    MOCLDY    55  30  38 CALM      30.07R                  
DAYTON         CLEAR     50  36  57 CALM      30.05R                  
$$

SKY/WX REPORTED AS FAIR MEANS FEW OR NO CLOUDS BELOW
12 THOUSAND FEET.